Notices

What's New in latest Release from April 7th, 2021:

- Updated Glossary, including Speed of Maximum Gust, and Total Hourly Precipitation

- Updated national and regional climate services offices contacts and prices information

- Addition of station inventory lists for 1981-2010, 1971-2000, and 1961-1990 Normals.

If you haven't already, please take our survey and provide feedback about our website: https://eccc.sondage-survey.ca/f/LanguageSelection.aspx?s=442ca660-fcf1-47c0-95a9-59707d6fd709

Hourly Data Report for April 30, 2003

TORONTO CITY
ONTARIO

43°40'00.000" N
79°24'00.000" W
112.50 m
6158355
71508
XTO

Download Data

Hourly Data (April 2003)
Hourly Data Report for April 30, 2003
TIME
LST
Temp Definition
°C
Dew Point Definition
°C
Rel Hum Definition
%
Precip. Amount Definition
mm

Wind Dir Definition
10's deg

Wind Spd Definition
km/h
Visibility Definition
km
Stn Press Definition
kPa
Hmdx Definition


Wind Chill Definition


Weather Definition


00:00 7.9 -0.9 54   LegendMM LegendMM LegendMM 100.47     LegendNANA
01:00 7.7 -0.6 56   LegendMM LegendMM LegendMM 100.49     LegendNANA
02:00 7.6 -0.5 56   LegendMM LegendMM LegendMM 100.50     LegendNANA
03:00 7.3 0.1 60   LegendMM LegendMM LegendMM 100.56     LegendNANA
04:00 7.2 -0.4 58   LegendMM LegendMM LegendMM 100.54     LegendNANA
05:00 6.5 -0.3 62   LegendMM LegendMM LegendMM 100.57     LegendNANA
06:00 6.8 0.0 62   LegendMM LegendMM LegendMM 100.61     LegendNANA
07:00 8.1 -1.0 53   LegendMM LegendMM LegendMM 100.67     LegendNANA
08:00 10.4 -2.4 41   LegendMM LegendMM LegendMM 100.68     LegendNANA
09:00 9.5 -2.5 43   LegendMM LegendMM LegendMM 100.68     LegendNANA
10:00 10.8 -2.0 41   LegendMM LegendMM LegendMM 100.73     LegendNANA
11:00 10.0 -1.8 44   LegendMM LegendMM LegendMM 100.72     LegendNANA
12:00 10.8 -0.7 45   LegendMM LegendMM LegendMM 100.67     LegendNANA
13:00 11.4 -0.8 43   LegendMM LegendMM LegendMM 100.59     LegendNANA
14:00 11.0 -1.5 42   LegendMM LegendMM LegendMM 100.49     LegendNANA
15:00 10.4 -2.4 41   LegendMM LegendMM LegendMM 100.42     LegendNANA
16:00 11.1 -3.5 36   LegendMM LegendMM LegendMM 100.43     LegendNANA
17:00 9.9 -1.0 47   LegendMM LegendMM LegendMM 100.31     LegendNANA
18:00 9.0 -1.8 47   LegendMM LegendMM LegendMM 100.17     LegendNANA
19:00 9.2 -3.5 41   LegendMM LegendMM LegendMM 100.14     LegendNANA
20:00 9.0 -2.1 46   LegendMM LegendMM LegendMM 100.04     LegendNANA
21:00 8.9 0.9 57   LegendMM LegendMM LegendMM 100.10     LegendNANA
22:00 8.6 1.5 61   LegendMM LegendMM LegendMM 99.97     LegendNANA
23:00 8.8 2.6 65   LegendMM LegendMM LegendMM 99.86     LegendNANA

Notes on Data Quality.

Legend

  • E = Estimated
  • M = Missing
  • NA = Not Available*
  • [empty] = Indicates an unobserved value
Date modified: